Weather History for Swansboro, NC

Change the Weather History Date:

Monday, August 13, 2012

  Actual Average (KNKT) Record (KNKT)
Temperature  
Mean Temperature 78 °F -  
Max Temperature 84 °F 85 °F 91 °F (1997)
Min Temperature 72 °F 68 °F 66 °F (2006)
Cooling Degree Days 13    
Growing Degree Days 28 (Base 50)    
Moisture  
Dew Point 74 °F    
Average Humidity 85    
Maximum Humidity 97    
Minimum Humidity 72    
Precipitation  
Precipitation 0.00 in - - ()
Sea Level Pressure  
Sea Level Pressure 30.02 in    
Wind  
Wind Speed 3 mph (SSW)    
Max Wind Speed 12 mph    
Max Gust Speed -    
Visibility 8 miles    
Events      
Averages and records for this station are not official NWS values.
T = Trace of Precipitation, MM = Missing Value Source: NWS Daily Summary

Daily Weather History Graph

Daily Weather History Graph

Search for Another Location

Airport:

Trip Planner

Search our weather history database for the weather conditions in past years. The results will help you decide how hot, cold, wet, or windy it might be!

Date:

Astronomy

Aug. 13, 2012 Rise Set
Actual Time 6:27 AM EDT 7:57 PM EDT
Civil Twilight 6:00 AM EDT 8:24 PM EDT
Nautical Twilight 5:28 AM EDT 8:56 PM EDT
Astronomical Twilight 4:54 AM EDT 9:30 PM EDT
Moon 2:33 AM EDT (8/13) 5:03 PM EDT (8/13)
Length of Visible Light 14h 23m
Length of Day
13h 30m
Waning Crescent, 16% of the Moon is Illuminated
Aug 13
Waning Crescent
Aug 17
New
Aug 24
First Quarter
Aug 31
Full
Sep 8
Last Quarter

Hourly Weather History & Observations

Time (EDT) Temp. Heat Index Dew Point Humidity Pressure Visibility Wind Dir Wind Speed Gust Speed Precip Events Conditions
12:57 AM 77.0 °F - 73.9 °F 90% 30.03 in 10.0 mi Calm Calm - N/A   Clear
1:57 AM 75.9 °F - 73.0 °F 91% 30.02 in 9.0 mi Calm Calm - N/A   Clear
2:57 AM 73.9 °F - 72.0 °F 93% 30.01 in 6.0 mi Calm Calm - N/A   Clear
3:57 AM 73.0 °F - 71.1 °F 93% 30.01 in 6.0 mi Calm Calm - N/A   Clear
4:44 AM 73.4 °F - 71.6 °F 94% 30.00 in 2.5 mi Calm Calm - N/A   Clear
4:57 AM 73.0 °F - 71.1 °F 93% 30.02 in 5.0 mi Calm Calm - N/A   Clear
5:57 AM 73.0 °F - 71.1 °F 93% 30.03 in 7.0 mi Calm Calm - N/A   Mostly Cloudy
6:57 AM 72.0 °F - 71.1 °F 97% 30.05 in 4.0 mi Calm Calm - N/A   Partly Cloudy
7:57 AM 77.0 °F - 75.0 °F 94% 30.06 in 6.0 mi Calm Calm - N/A   Clear
8:57 AM 79.0 °F - 73.9 °F 84% 30.06 in 9.0 mi Calm Calm - N/A   Clear
10:57 AM 82.0 °F 88.6 °F 75.0 °F 79% 30.06 in 9.0 mi SSW 5.8 mph - N/A   Scattered Clouds
11:57 AM 84.0 °F 91.9 °F 75.0 °F 74% 30.06 in 10.0 mi South 8.1 mph - N/A   Scattered Clouds
1:57 PM 84.0 °F 91.9 °F 75.0 °F 74% 30.02 in 10.0 mi South 8.1 mph - N/A   Scattered Clouds
2:57 PM 84.0 °F 91.9 °F 75.0 °F 74% 30.01 in 10.0 mi South 10.4 mph - N/A   Partly Cloudy
3:57 PM 84.0 °F 91.9 °F 75.0 °F 74% 30.00 in 10.0 mi South 11.5 mph - N/A   Clear
4:57 PM 84.0 °F 91.2 °F 73.9 °F 72% 29.99 in 10.0 mi South 8.1 mph - N/A   Scattered Clouds
5:57 PM 84.0 °F 91.9 °F 75.0 °F 74% 29.99 in 10.0 mi SSW 11.5 mph - N/A   Scattered Clouds
6:57 PM 82.0 °F 88.6 °F 75.0 °F 79% 29.98 in 10.0 mi SW 9.2 mph - N/A   Scattered Clouds
7:57 PM 81.0 °F 86.7 °F 75.0 °F 82% 29.99 in 10.0 mi SW 8.1 mph - N/A   Scattered Clouds
8:57 PM 80.1 °F 85.1 °F 75.0 °F 85% 30.00 in 10.0 mi SW 6.9 mph - N/A   Partly Cloudy
9:57 PM 80.1 °F 85.1 °F 75.0 °F 85% 30.01 in 10.0 mi SW 6.9 mph - N/A   Clear
10:57 PM 80.1 °F 85.4 °F 75.9 °F 87% 30.01 in 10.0 mi SSW 8.1 mph - N/A   Clear
11:57 PM 80.1 °F 85.4 °F 75.9 °F 87% 30.00 in 10.0 mi SW 5.8 mph - N/A   Clear